軌道要素
Epoch 2022 Jan. 21.0 TT = JDT 2459600.5
T 2021 Oct. 25.77787 TT Rudenko
q 2.9954676 (2000.0) P Q
n 0.11753323 Peri. 128.04483 +0.53991007 -0.83521956
a 4.1275810 Node 288.96708 +0.73354123 +0.52773003
e 0.2742801 Incl. 6.33978 +0.41281276 +0.15462632
P 8.39
From 151 observations 2012 Oct. 6-2022 Jan. 31, mean residual 0".5.
|